Flag for Micronesia Weather past 2 weeks in Colonia, Yap, Micronesia

Now
80 °F

Overcast.


Feels Like: 85 °F
Forecast: 78 / 83 °F
Wind: 14 mph from Southwest

Location: Yap Island

Current Time: Sep 3, 2014 at 7:28:48 AM

Latest Report: Sep 3, 2014 at 6:50 AM


Visibility: 12 mi

Pressure: 29.78 "Hg

Humidity: 85%

Dew point: 75 °F

Location of ColoniaLocation

Historic Weather in Colonia — Graph

°F

Colonia temperature yesterday

Maximum temperature yesterday: 89 °F (at 1:51 PM)
Minimum temperature yesterday: 76 °F (at 7:54 PM)
Average temperature yesterday: 82 °F

Past Weeks' High & Low Weather Summary

 TemperatureHumidityPressure
High89 °F (Sep 2, 1:51 PM)97% (Aug 22, 10:50 PM)29.89 "Hg (Aug 22, 10:50 PM)
Low75 °F (Sep 1, 7:55 AM)69% (Aug 19, 11:53 AM)29.67 "Hg (Aug 31, 3:50 AM)
Average81 °F86%29.81 "Hg
* Reported Aug 19 5:52 AM — Sep 3 5:50 AM, Colonia, Weather by CustomWeather, © 2014

Note: Actual official high and low records may vary slightly from our data, if they occured in-between our weather recording intervals... More about our weather records

Advertising

Colonia weather history for previous 24 hours

 ConditionsComfort  
Time TempWeatherWind HumidityBarometerVisibility
5:50 AM
Sep 3
80 °FMostly cloudy.12 mph84%29.76 "Hg12 mi
4:52 AM80 °FMostly cloudy.16 mph86%29.76 "Hg12 mi
3:52 AM79 °FMostly cloudy.13 mph86%29.76 "Hg12 mi
2:51 AM78 °FOvercast.16 mph88%29.77 "Hg12 mi
1:51 AM78 °FSprinkles. Overcast.9 mph92%29.80 "Hg9 mi
12:53 AM77 °FSprinkles. Overcast.7 mph93%29.82 "Hg7 mi
11:51 PM
Sep 2
76 °FSprinkles. Overcast.7 mph92%29.85 "Hg5 mi
10:52 PM76 °FSprinkles. Overcast.10 mph94%29.85 "Hg6 mi
9:51 PM78 °FSprinkles. Overcast.7 mph93%29.85 "Hg8 mi
8:50 PM78 °FOvercast.6 mph93%29.83 "Hg12 mi
7:54 PM76 °FSprinkles. Mostly cloudy.17 mph92%29.83 "Hg6 mi
6:52 PM82 °FCloudy.3 mph78%29.78 "Hg12 mi
5:54 PM84 °FCloudy.9 mph80%29.76 "Hg12 mi
4:53 PM85 °FScattered showers. Cloudy.7 mph78%29.75 "Hg12 mi
3:52 PM86 °FScattered showers. Cloudy.10 mph80%29.76 "Hg12 mi
2:50 PM84 °FMostly cloudy.7 mph86%29.76 "Hg12 mi
1:51 PM89 °FMostly cloudy.9 mph74%29.78 "Hg12 mi
12:52 PM87 °FMostly cloudy.10 mph77%29.80 "Hg12 mi
11:52 AM87 °FMostly cloudy.10 mph76%29.81 "Hg12 mi
10:50 AM86 °FMostly cloudy.8 mph78%29.81 "Hg12 mi
9:50 AM85 °FScattered showers. Cloudy.10 mph79%29.82 "Hg12 mi
8:50 AM83 °FMore clouds than sun.12 mph83%29.83 "Hg12 mi
7:52 AM82 °FOvercast.8 mph87%29.80 "Hg12 mi
Weather by CustomWeather, © 2014

See weather overviewHow to use our weather pages